DW6378 Weather Reports


Display with metric or nautical units.
time (UTC)temp
F
wind
direction
speed
MPH
gust
MPH
rain 1hr
in
rain 24hr
in
rain mn
in
humidity
%
barometer
mb
20210921175000 65 257 1.0 3.0 0.00 0.00 0.00 79 1026.7
20210921174500 65 204 1.0 6.0 0.00 0.00 0.00 79 1026.8
20210921173954 65 283 2.0 6.0 0.00 0.00 0.00 78 1026.8
20210921173455 65 166 2.0 7.0 0.00 0.00 0.00 78 1026.8
20210921172954 66 129 3.0 7.0 0.00 0.00 0.00 77 1026.9
20210921172454 66 150 3.0 7.0 0.00 0.00 0.00 76 1026.9
20210921171956 67 121 3.0 7.0 0.00 0.00 0.00 76 1026.8
20210921171454 67 155 3.0 7.0 0.00 0.00 0.00 76 1026.8
20210921170948 67 193 3.0 11.0 0.00 0.00 0.00 77 1026.7
20210921170448 67 205 3.0 11.0 0.00 0.00 0.00 78 1026.9
20210921165948 66 166 3.0 7.0 0.00 0.00 0.00 80 1026.7
20210921165449 65 160 3.0 7.0 0.00 0.00 0.00 80 1026.8
20210921164948 65 157 3.0 7.0 0.00 0.00 0.00 79 1027.0
20210921164449 65 225 2.0 6.0 0.00 0.00 0.00 79 1027.0
20210921163946 65 150 3.0 6.0 0.00 0.00 0.00 79 1027.0
20210921163444 65 201 2.0 6.0 0.00 0.00 0.00 79 1027.0
20210921162942 65 155 2.0 6.0 0.00 0.00 0.00 80 1027.0
20210921162442 65 201 2.0 6.0 0.00 0.00 0.00 80 1027.2
20210921161945 65 188 2.0 8.0 0.00 0.00 0.00 79 1027.2
20210921161442 65 235 2.0 8.0 0.00 0.00 0.00 79 1027.3
20210921160941 65 152 2.0 7.0 0.00 0.00 0.00 80 1027.3
20210921160438 65 156 2.0 7.0 0.00 0.00 0.00 80 1027.3
20210921155938 64 128 2.0 5.0 0.00 0.00 0.00 81 1027.3
20210921155438 64 167 2.0 8.0 0.00 0.00 0.00 81 1027.3
20210921154936 64 190 3.0 8.0 0.00 0.00 0.00 80 1027.4
20210921154436 64 47 3.0 7.0 0.00 0.00 0.00 80 1027.4
20210921153932 64 134 3.0 9.0 0.00 0.00 0.00 80 1027.4
20210921153432 64 165 3.0 9.0 0.00 0.00 0.00 80 1027.3
20210921152932 64 177 3.0 7.0 0.00 0.00 0.00 81 1027.3
20210921152433 64 127 3.0 6.0 0.00 0.00 0.00 81 1027.4
20210921151930 64 128 3.0 9.0 0.00 0.00 0.00 82 1027.3
20210921151430 64 204 3.0 9.0 0.00 0.00 0.00 82 1027.3
20210921150924 64 149 3.0 8.0 0.00 0.00 0.00 83 1027.3
20210921150425 63 159 3.0 7.0 0.00 0.00 0.00 85 1027.3
20210921145926 62 131 3.0 7.0 0.00 0.00 0.00 86 1027.3
20210921145426 62 229 4.0 8.0 0.00 0.00 0.00 86 1027.2
20210921144925 61 167 4.0 8.0 0.00 0.00 0.00 86 1027.4
20210921144425 61 212 4.0 9.0 0.00 0.00 0.00 86 1027.5
20210921143921 62 150 4.0 9.0 0.00 0.00 0.00 87 1027.4
20210921143420 62 160 4.0 9.0 0.00 0.00 0.00 88 1027.5
20210921142921 62 149 3.0 9.0 0.00 0.00 0.00 89 1027.3
20210921142422 61 176 2.0 6.0 0.00 0.00 0.00 90 1027.3
20210921141919 61 183 2.0 9.0 0.00 0.00 0.00 90 1027.5
20210921141419 61 158 2.0 9.0 0.00 0.00 0.00 90 1027.7
20210921140912 60 200 3.0 9.0 0.00 0.00 0.00 90 1027.7
20210921140413 60 269 2.0 8.0 0.00 0.00 0.00 91 1027.6
20210921135913 60 224 2.0 8.0 0.00 0.00 0.00 91 1027.6
20210921135412 60 202 3.0 9.0 0.00 0.00 0.00 91 1027.6
20210921134912 59 153 3.0 9.0 0.00 0.00 0.00 91 1027.5
20210921134412 59 107 2.0 5.0 0.00 0.00 0.00 91 1027.5
20210921133910 59 159 3.0 8.0 0.00 0.00 0.00 91 1027.6
20210921133409 59 150 3.0 8.0 0.00 0.00 0.00 91 1027.7
20210921132908 58 201 3.0 7.0 0.00 0.00 0.00 92 1027.6
20210921132408 58 144 2.0 7.0 0.00 0.00 0.00 92 1027.5
20210921131906 58 163 2.0 6.0 0.00 0.00 0.00 92 1027.5
20210921131407 58 143 2.0 6.0 0.00 0.00 0.00 92 1027.6
20210921130900 57 204 2.0 6.0 0.00 0.00 0.00 92 1027.7
20210921130401 57 198 1.0 5.0 0.00 0.00 0.00 92 1027.7
20210921125901 57 142 1.0 5.0 0.00 0.00 0.00 92 1027.6
20210921125401 56 149 2.0 6.0 0.00 0.00 0.00 92 1027.6
20210921124901 56 169 2.0 6.0 0.00 0.00 0.00 92 1027.6
20210921124400 56 207 2.0 6.0 0.00 0.00 0.00 92 1027.6
20210921123855 56 146 2.0 6.0 0.00 0.00 0.00 92 1027.6
20210921123355 56 145 1.0 3.0 0.00 0.00 0.00 92 1027.5
20210921122856 56 156 1.0 3.0 0.00 0.00 0.00 92 1027.6
20210921122355 56 149 1.0 4.0 0.00 0.00 0.00 92 1027.6
20210921121855 55 145 1.0 4.0 0.00 0.00 0.00 92 1027.7
20210921121354 55 172 1.0 4.0 0.00 0.00 0.00 92 1027.6
20210921120853 55 146 2.0 5.0 0.00 0.00 0.00 92 1027.7
20210921120353 55 138 1.0 5.0 0.00 0.00 0.00 92 1027.7
20210921115852 55 149 1.0 3.0 0.00 0.00 0.00 92 1027.7
20210921115354 54 179 0.0 2.0 0.00 0.00 0.00 92 1027.7
20210921114853 54 145 0.0 2.0 0.00 0.00 0.00 92 1027.7
20210921114352 54 191 0.0 6.0 0.00 0.00 0.00 92 1027.7
20210921113852 53 191 1.0 6.0 0.00 0.00 0.00 92 1027.6
20210921113349 53 213 1.0 4.0 0.00 0.00 0.00 92 1027.6
20210921112848 53 249 1.0 4.0 0.00 0.00 0.00 92 1027.5
20210921112349 53 198 1.0 2.0 0.00 0.00 0.00 92 1027.5
20210921111849 52 208 0.0 2.0 0.00 0.00 0.00 92 1027.5
20210921111347 52 208 0.0 2.0 0.00 0.00 0.00 91 1027.5
20210921110846 52 215 0.0 1.0 0.00 0.00 0.00 91 1027.4
20210921110344 52 215 0.0 0.0 0.00 0.00 0.00 91 1027.4
20210921105844 52 215 0.0 1.0 0.00 0.00 0.00 91 1027.4
20210921105344 53 215 0.0 1.0 0.00 0.00 0.00 91 1027.3
20210921104843 53 215 0.0 2.0 0.00 0.00 0.00 91 1027.2
20210921104341 53 215 0.0 2.0 0.00 0.00 0.00 91 1027.2
20210921103840 53 212 1.0 3.0 0.00 0.00 0.00 91 1027.2
20210921103338 53 136 1.0 3.0 0.00 0.00 0.00 91 1027.2
20210921102836 53 148 1.0 3.0 0.00 0.00 0.00 91 1027.1
20210921102336 53 145 0.0 1.0 0.00 0.00 0.00 91 1027.1
20210921101835 53 154 0.0 1.0 0.00 0.00 0.00 91 1027.2
20210921101334 53 154 0.0 1.0 0.00 0.00 0.00 91 1027.2
20210921100837 53 160 0.0 3.0 0.00 0.00 0.00 91 1027.1
20210921100328 53 160 0.0 3.0 0.00 0.00 0.00 91 1027.1
20210921095826 53 190 0.0 0.0 0.00 0.00 0.00 91 1027.0
20210921095326 53 205 0.0 0.0 0.00 0.00 0.00 91 1027.1
20210921094823 53 205 0.0 0.0 0.00 0.00 0.00 91 1027.1
20210921094322 53 131 0.0 0.0 0.00 0.00 0.00 91 1027.1
20210921093820 53 150 0.0 0.0 0.00 0.00 0.00 91 1027.1
20210921093320 53 149 0.0 0.0 0.00 0.00 0.00 91 1027.1
20210921092821 53 162 0.0 0.0 0.00 0.00 0.00 90 1027.2
20210921092319 53 154 0.0 0.0 0.00 0.00 0.00 91 1027.2
20210921091817 53 167 0.0 0.0 0.00 0.00 0.00 90 1027.1
20210921091316 53 174 0.0 0.0 0.00 0.00 0.00 90 1027.2
20210921090811 53 149 0.0 2.0 0.00 0.00 0.00 90 1027.1
20210921090309 53 155 0.0 2.0 0.00 0.00 0.00 90 1027.1
20210921085807 54 129 0.0 2.0 0.00 0.00 0.00 90 1027.0
20210921085306 54 156 0.0 2.0 0.00 0.00 0.00 90 1027.1
20210921084804 54 148 0.0 2.0 0.00 0.00 0.00 90 1027.1
20210921084258 54 153 0.0 2.0 0.00 0.00 0.00 90 1027.1
20210921083758 54 153 0.0 3.0 0.00 0.00 0.00 90 1027.1
20210921083300 54 129 1.0 3.0 0.00 0.00 0.00 90 1027.0
20210921082759 54 134 1.0 3.0 0.00 0.00 0.00 90 1027.0
20210921082259 54 131 1.0 4.0 0.00 0.00 0.00 90 1026.9
20210921081758 54 125 1.0 4.0 0.00 0.00 0.00 90 1026.9
20210921081255 54 153 1.0 2.0 0.00 0.00 0.00 90 1027.0
20210921080755 54 138 0.0 3.0 0.00 0.00 0.00 90 1027.0
20210921080256 54 145 1.0 5.0 0.00 0.00 0.00 90 1026.9
20210921075754 54 204 2.0 5.0 0.00 0.00 0.00 90 1026.9
20210921075253 54 165 2.0 5.0 0.00 0.00 0.00 90 1026.9
20210921074752 54 143 2.0 6.0 0.00 0.00 0.00 90 1026.9
20210921074248 54 145 2.0 6.0 0.00 0.00 0.00 90 1026.9
20210921073750 55 135 2.0 5.0 0.00 0.00 0.00 90 1026.7
20210921073247 55 143 2.0 5.0 0.00 0.00 0.00 90 1026.7
20210921072747 55 165 2.0 4.0 0.00 0.00 0.00 90 1026.7
20210921072246 55 148 3.0 7.0 0.00 0.00 0.00 90 1026.7
20210921071746 55 150 3.0 8.0 0.00 0.00 0.00 90 1026.5
20210921071244 55 204 3.0 8.0 0.00 0.00 0.00 90 1026.8
20210921070744 54 129 3.0 6.0 0.00 0.00 0.00 90 1026.7
20210921070245 54 132 3.0 8.0 0.00 0.00 0.00 90 1026.7
20210921065743 54 137 3.0 8.0 0.00 0.00 0.00 90 1026.8
20210921065243 54 137 3.0 10.0 0.00 0.00 0.00 90 1026.8
20210921064744 54 142 3.0 10.0 0.00 0.00 0.00 90 1026.8
20210921064242 54 113 3.0 8.0 0.00 0.00 0.00 89 1026.9
20210921063738 54 148 2.0 8.0 0.00 0.00 0.00 89 1027.0
20210921063238 54 153 2.0 7.0 0.00 0.00 0.00 89 1027.1
20210921062737 54 167 3.0 10.0 0.00 0.00 0.00 89 1027.1
20210921062236 54 162 3.0 10.0 0.00 0.00 0.00 89 1027.1
20210921061737 54 117 3.0 9.0 0.00 0.00 0.00 89 1027.0
20210921061237 54 136 3.0 9.0 0.00 0.00 0.00 89 1027.0
20210921060731 54 146 3.0 7.0 0.00 0.00 0.00 89 1027.1
20210921060230 54 126 2.0 7.0 0.00 0.00 0.00 89 1027.1
20210921055730 54 122 2.0 7.0 0.00 0.00 0.00 89 1027.2
20210921055230 54 129 3.0 7.0 0.00 0.00 0.00 89 1027.2
20210921054731 54 157 3.0 7.0 0.00 0.00 0.00 89 1027.1
20210921054230 54 146 3.0 7.0 0.00 0.00 0.00 89 1027.1
20210921053725 54 126 3.0 9.0 0.00 0.00 0.00 89 1027.2
20210921053225 54 174 3.0 9.0 0.00 0.00 0.00 89 1027.3
20210921052726 55 148 3.0 8.0 0.00 0.00 0.00 88 1027.4
20210921052225 55 156 3.0 8.0 0.00 0.00 0.00 88 1027.5
20210921051724 55 116 3.0 8.0 0.00 0.00 0.00 88 1027.5
20210921051224 55 159 2.0 6.0 0.00 0.00 0.00 88 1027.5
20210921050718 55 112 3.0 7.0 0.00 0.00 0.00 88 1027.5
20210921050219 55 139 3.0 7.0 0.00 0.00 0.00 88 1027.5
20210921045719 54 136 2.0 7.0 0.00 0.00 0.00 88 1027.6
20210921045219 54 141 2.0 4.0 0.00 0.00 0.00 88 1027.6
20210921044720 54 115 2.0 5.0 0.00 0.00 0.00 88 1027.7
20210921044218 54 229 2.0 6.0 0.00 0.00 0.00 88 1027.7
20210921043713 55 240 2.0 7.0 0.00 0.00 0.00 88 1027.7
20210921043213 55 273 2.0 7.0 0.00 0.00 0.00 88 1027.6
20210921042713 55 143 3.0 7.0 0.00 0.00 0.00 88 1027.5
20210921042213 55 139 3.0 7.0 0.00 0.00 0.00 88 1027.4
20210921041712 55 183 2.0 6.0 0.00 0.00 0.00 88 1027.4
20210921041213 55 146 3.0 6.0 0.00 0.00 0.00 87 1027.4
20210921040708 55 119 3.0 8.0 0.00 0.00 0.00 87 1027.4
20210921040206 55 155 2.0 8.0 0.00 0.00 0.00 87 1027.3
20210921035707 55 120 2.0 5.0 0.00 0.00 0.00 87 1027.3
20210921035208 55 159 2.0 4.0 0.00 0.00 0.00 87 1027.4
20210921034707 55 138 2.0 6.0 0.00 0.00 0.00 87 1027.5
20210921034206 55 156 2.0 6.0 0.00 0.00 0.00 87 1027.6
20210921033700 55 138 2.0 5.0 0.00 0.00 0.00 87 1027.6
20210921033200 55 179 2.0 5.0 0.00 0.00 0.00 87 1027.6
20210921032701 56 205 2.0 6.0 0.00 0.00 0.00 86 1027.5
20210921032200 56 136 2.0 6.0 0.00 0.00 0.00 86 1027.5
20210921031700 56 179 2.0 6.0 0.00 0.00 0.00 86 1027.6
20210921031200 56 143 2.0 8.0 0.00 0.00 0.00 86 1027.5
20210921030655 56 133 2.0 8.0 0.00 0.00 0.00 86 1027.6
20210921030157 56 129 2.0 3.0 0.00 0.00 0.00 86 1027.5
20210921025655 56 266 2.0 4.0 0.00 0.00 0.00 86 1027.5
20210921025155 56 146 2.0 4.0 0.00 0.00 0.00 86 1027.6
20210921024654 56 134 2.0 4.0 0.00 0.00 0.00 86 1027.7
20210921024154 56 134 2.0 5.0 0.00 0.00 0.00 86 1027.6
20210921023648 56 287 1.0 5.0 0.00 0.00 0.00 85 1027.6
20210921023147 56 156 1.0 6.0 0.00 0.00 0.00 85 1027.6
20210921022645 56 249 2.0 6.0 0.00 0.00 0.00 85 1027.6